Terminal Aerodrome Forecast
Issued by NWS

Home | Current Version | Previous Version | Text Only | Print | Product List | Glossary On
Versions: 1 2 3 4 5 6 7 8 9 10 11 12 13 14 15 16 17 18 19 20 21 22 23 24 25 26 27 28
000
FTUS43 KDLH 140500
TAFHIB
TAF
KHIB 140532Z 1406/1506 17008KT P6SM VCSH SCT040 OVC070
      WS015/22035KT
      TEMPO 1406/1410 20012KT 5SM -RA BKN035
     FM141000 25008KT P6SM SCT050
     FM141600 28012G20KT P6SM BKN050=

USA.gov is the U.S. government's official web portal to all federal, state and local government web resources and services.